Overview Statistics Trail Chart Weather Telemetry Raw packets
 

This is the latest recevied weather packets stored in our database for station/object W5GMO. If no packets are shown the sender has not sent any weather packets the latest 10 day(s).

<< 40 41 42 43 44 45 46 >>
Time Temp. Humidity Pressure Rain* Wind** Luminosity Snow
1788362353 31.11° C 1% 1018.7 hPa 0 mm - 622 W/m² -
1788362049 31.67° C 1% 1018.4 hPa 0 mm - 629 W/m² -
1788361749 31.11° C 1% 1018.5 hPa 0 mm - 572 W/m² -
1788361445 30.56° C 1% 1018.5 hPa 0 mm - 558 W/m² -
1788361144 30° C 1% 1018.4 hPa 0 mm - 581 W/m² -
1788360840 30° C 1% 1018.5 hPa 0 mm - 577 W/m² -
1788360534 30° C 1% 1018.5 hPa 0 mm - 455 W/m² -
1788360231 30.56° C 1% 1018.5 hPa 0 mm - 574 W/m² -
1788359930 30.56° C 1% 1018.6 hPa 0 mm - 487 W/m² -
1788359625 30° C 1% 1018.4 hPa 0 mm - 457 W/m² -
1788359321 30° C 1% 1018.6 hPa 0 mm - 486 W/m² -
1788359017 30° C 1% 1018.5 hPa 0 mm - 445 W/m² -
1788358712 30° C 1% 1018.6 hPa 0 mm - 473 W/m² -
1788358408 29.44° C 1% 1018.8 hPa 0 mm - 500 W/m² -
1788358107 30° C 1% 1018.6 hPa 0 mm - 482 W/m² -
1788357802 29.44° C 1% 1018.7 hPa 0 mm - 463 W/m² -
1788357501 28.89° C 1% 1018.8 hPa 0 mm - 467 W/m² -
1788357198 28.89° C 1% 1018.4 hPa 0 mm - 449 W/m² -
1788356896 28.89° C 1% 1018.5 hPa 0 mm - 375 W/m² -
1788356592 28.89° C 1% 1018.5 hPa 0 mm - 378 W/m² -
1788356288 28.89° C 1% 1018.5 hPa 0 mm - 405 W/m² -
1788355989 28.33° C 1% 1018.3 hPa 0 mm - 384 W/m² -
1788355682 28.89° C 1% 1018.4 hPa 0 mm - 364 W/m² -
1788355378 28.33° C 1% 1018.8 hPa 0 mm - 360 W/m² -
1788355073 28.33° C 1% 1018.6 hPa 0 mm - 358 W/m² -

* Rain latest hour (hover to see other rain measurements)
** Current wind speed in m/s (hover to see current wind gust speed)